Location: Newark
(30.0333°N, 31.2167°E)
Time: 08:04:31
(UTC+00:00)

Envisat - Visible Passes

Search period start: 11 December 2019 00:00
Search period end: 21 December 2019 00:00
Orbit: 764 x 766 km, 98.1° (Epoch: 11 December)

Date Brightness Start Highest point End Pass type
(mag) Time Alt. Az. Time Alt. Az. Time Alt. Az.
11 Dec 4.6 04:08:32 10° NNE 04:13:20 41° E 04:18:05 10° S visible
11 Dec 3.8 15:17:31 10° SE 15:21:53 30° ENE 15:26:15 10° NNE visible
11 Dec 5.3 16:56:51 10° SSW 17:00:49 23° W 17:04:48 10° NW visible
12 Dec 6.0 03:33:12 10° NE 03:36:23 17° E 03:39:33 10° SE visible
12 Dec 3.6 16:18:58 10° S 16:23:56 58° W 16:28:56 10° NNW visible
13 Dec 3.0 15:42:17 10° SSE 15:47:13 56° ENE 15:52:11 10° N visible
13 Dec 6.2 17:24:42 10° WSW 17:26:29 12° W 17:28:16 10° WNW visible
14 Dec 5.1 03:57:31 10° NE 04:02:00 31° E 04:06:29 10° SSE visible
14 Dec 4.9 16:45:04 10° SSW 16:49:29 30° W 16:53:56 10° NW visible
15 Dec 6.2 03:22:57 10° ENE 03:25:01 12° E 03:27:05 10° ESE visible
15 Dec 3.2 16:07:36 10° S 16:12:39 77° WSW 16:17:44 10° NNW visible
16 Dec 3.3 15:31:14 10° SE 15:35:59 43° ENE 15:40:47 10° N visible
16 Dec 5.9 17:12:06 10° SW 17:15:07 16° W 17:18:09 10° WNW visible
17 Dec 5.6 03:46:36 10° NE 03:50:41 24° E 03:54:44 10° SSE visible
17 Dec 4.4 16:33:27 10° SSW 16:38:11 39° W 16:42:55 10° NNW visible
18 Dec 2.9 15:56:19 10° SSE 16:01:23 82° ENE 16:06:29 10° N visible
19 Dec 4.3 04:11:23 10° NNE 04:16:16 46° E 04:21:06 10° S visible
19 Dec 3.6 15:20:17 10° SE 15:24:47 33° ENE 15:29:17 10° N visible
19 Dec 5.5 17:00:01 10° SW 17:03:46 21° W 17:07:32 10° NW visible
20 Dec 5.9 03:35:51 10° NE 03:39:21 18° E 03:42:48 10° SE visible
20 Dec 3.8 16:21:57 10° S 16:26:52 52° W 16:31:49 10° NNW visible
